TimeCDT,TemperatureF,Dew PointF,Humidity,Sea Level PressureIn,VisibilityMPH,Wind Direction,Wind SpeedMPH,Gust SpeedMPH,PrecipitationIn,Events,Conditions,WindDirDegrees,DateUTC
12:15 AM,41.5,36.5,82,30.34,10.0,NNW,5.8,-,N/A,,Overcast,330,2012-10-06 05:15:00
12:35 AM,41.5,36.5,82,30.34,10.0,NNW,4.6,-,N/A,,Overcast,330,2012-10-06 05:35:00
12:55 AM,41.2,36.7,84,30.34,10.0,NNW,6.9,-,N/A,,Overcast,330,2012-10-06 05:55:00
1:15 AM,41.0,36.5,84,30.32,10.0,North,8.1,-,N/A,,Mostly Cloudy,350,2012-10-06 06:15:00
1:35 AM,40.3,36.1,85,30.30,10.0,North,8.1,-,N/A,,Scattered Clouds,360,2012-10-06 06:35:00
1:55 AM,39.7,35.6,85,30.31,10.0,North,4.6,-,N/A,,Clear,360,2012-10-06 06:55:00
2:15 AM,38.3,34.2,85,30.30,10.0,North,6.9,-,N/A,,Clear,360,2012-10-06 07:15:00
2:35 AM,37.2,34.2,89,30.31,10.0,Calm,Calm,-,N/A,,Clear,0,2012-10-06 07:35:00
2:55 AM,37.9,33.6,84,30.31,10.0,Calm,Calm,-,N/A,,Clear,0,2012-10-06 07:55:00
3:15 AM,38.1,32.4,80,30.32,10.0,SW,3.5,-,N/A,,Clear,220,2012-10-06 08:15:00
3:35 AM,37.0,32.0,82,30.32,10.0,Calm,Calm,-,N/A,,Clear,0,2012-10-06 08:35:00
3:55 AM,36.7,32.2,84,30.31,10.0,Calm,Calm,-,N/A,,Clear,0,2012-10-06 08:55:00
4:35 AM,35.8,31.1,83,30.32,10.0,NNW,3.5,-,N/A,,Scattered Clouds,330,2012-10-06 09:35:00
4:55 AM,35.6,32.0,87,30.32,10.0,NW,3.5,-,N/A,,Scattered Clouds,310,2012-10-06 09:55:00
5:15 AM,35.4,31.6,86,30.33,10.0,WNW,3.5,-,N/A,,Overcast,300,2012-10-06 10:15:00
5:35 AM,36.5,31.1,81,30.33,10.0,NW,3.5,-,N/A,,Overcast,320,2012-10-06 10:35:00
5:55 AM,35.8,32.0,86,30.33,10.0,NW,4.6,-,N/A,,Overcast,310,2012-10-06 10:55:00
6:15 AM,35.6,31.8,86,30.34,10.0,NNW,3.5,-,N/A,,Overcast,340,2012-10-06 11:15:00
6:35 AM,35.4,31.1,84,30.34,10.0,NNW,4.6,-,N/A,,Overcast,340,2012-10-06 11:35:00
6:55 AM,35.2,31.5,86,30.35,10.0,North,3.5,-,N/A,,Overcast,360,2012-10-06 11:55:00
7:15 AM,35.6,30.9,83,30.35,10.0,North,3.5,-,N/A,,Overcast,10,2012-10-06 12:15:00
7:35 AM,35.6,30.4,81,30.35,10.0,North,3.5,-,N/A,,Overcast,350,2012-10-06 12:35:00
7:55 AM,34.7,30.2,84,30.35,10.0,North,4.6,-,N/A,,Mostly Cloudy,10,2012-10-06 12:55:00
8:15 AM,34.7,30.2,84,30.36,10.0,North,6.9,-,N/A,,Overcast,10,2012-10-06 13:15:00
8:35 AM,35.8,30.4,81,30.37,10.0,NNE,5.8,-,N/A,,Overcast,20,2012-10-06 13:35:00
8:55 AM,36.1,28.8,75,30.37,10.0,NNE,6.9,-,N/A,,Overcast,30,2012-10-06 13:55:00
9:15 AM,36.5,28.4,72,30.38,10.0,NNE,6.9,-,N/A,,Overcast,20,2012-10-06 14:15:00
9:35 AM,37.2,27.9,69,30.38,10.0,NE,8.1,-,N/A,,Overcast,40,2012-10-06 14:35:00
9:55 AM,38.3,28.0,67,30.38,10.0,NE,5.8,-,N/A,,Overcast,40,2012-10-06 14:55:00
10:15 AM,39.4,27.5,62,30.39,10.0,NNE,6.9,-,N/A,,Overcast,20,2012-10-06 15:15:00
10:35 AM,40.6,27.7,60,30.39,10.0,NE,5.8,-,N/A,,Overcast,40,2012-10-06 15:35:00
10:55 AM,40.5,26.1,57,30.39,10.0,NNE,8.1,-,N/A,,Overcast,30,2012-10-06 15:55:00
11:15 AM,41.9,27.0,55,30.38,10.0,NNE,9.2,-,N/A,,Overcast,20,2012-10-06 16:15:00
11:35 AM,41.0,25.5,54,30.38,10.0,NNE,9.2,-,N/A,,Overcast,20,2012-10-06 16:35:00
11:55 AM,41.0,25.5,54,30.39,10.0,NNE,6.9,-,N/A,,Overcast,20,2012-10-06 16:55:00
12:15 PM,41.4,25.7,54,30.39,10.0,NNE,6.9,-,N/A,,Overcast,20,2012-10-06 17:15:00
12:35 PM,41.9,24.8,51,30.39,10.0,North,10.4,-,N/A,,Overcast,360,2012-10-06 17:35:00
12:55 PM,41.7,24.6,51,30.39,10.0,NNW,8.1,-,N/A,,Overcast,340,2012-10-06 17:55:00
1:15 PM,40.5,27.1,59,30.39,10.0,North,8.1,-,N/A,,Overcast,10,2012-10-06 18:15:00
1:35 PM,40.6,26.2,57,30.38,10.0,North,5.8,-,N/A,,Overcast,360,2012-10-06 18:35:00
1:55 PM,41.0,27.0,57,30.37,10.0,NW,11.5,17.3,N/A,,Overcast,310,2012-10-06 18:55:00
2:15 PM,40.3,28.4,63,30.37,10.0,WNW,9.2,-,N/A,,Overcast,300,2012-10-06 19:15:00
2:35 PM,40.1,30.2,68,30.37,10.0,West,6.9,-,N/A,,Overcast,280,2012-10-06 19:35:00
2:55 PM,38.7,31.6,76,30.37,10.0,WNW,8.1,-,N/A,Rain,Light Rain,300,2012-10-06 19:55:00
3:15 PM,37.6,32.5,82,30.37,7.0,NW,9.2,-,N/A,Rain,Light Rain,310,2012-10-06 20:15:00
3:35 PM,36.7,33.3,87,30.36,7.0,West,6.9,-,N/A,Rain,Light Rain,280,2012-10-06 20:35:00
3:55 PM,37.2,34.0,88,30.36,10.0,West,9.2,-,N/A,,Light Drizzle,270,2012-10-06 20:55:00
4:15 PM,37.6,34.3,88,30.36,10.0,West,8.1,-,N/A,,Overcast,260,2012-10-06 21:15:00
4:35 PM,37.8,34.2,87,30.36,10.0,West,6.9,-,N/A,,Overcast,260,2012-10-06 21:35:00
4:55 PM,38.3,34.5,86,30.36,10.0,West,6.9,-,N/A,,Overcast,280,2012-10-06 21:55:00
5:15 PM,38.3,34.0,84,30.35,10.0,West,8.1,-,N/A,,Overcast,280,2012-10-06 22:15:00
5:35 PM,38.7,34.2,84,30.35,10.0,WNW,6.9,-,N/A,,Overcast,290,2012-10-06 22:35:00
6:15 PM,38.5,33.6,83,30.35,10.0,West,10.4,-,N/A,,Overcast,280,2012-10-06 23:15:00
6:35 PM,38.5,33.8,83,30.35,10.0,West,8.1,-,N/A,,Mostly Cloudy,280,2012-10-06 23:35:00
6:55 PM,38.5,34.0,84,30.34,10.0,West,6.9,-,N/A,,Scattered Clouds,280,2012-10-06 23:55:00
7:15 PM,37.9,33.8,85,30.35,10.0,West,8.1,-,N/A,,Mostly Cloudy,280,2012-10-07 00:15:00
7:35 PM,37.4,33.8,87,30.35,10.0,West,8.1,-,N/A,,Overcast,270,2012-10-07 00:35:00
7:55 PM,36.1,32.9,88,30.35,10.0,West,8.1,-,N/A,,Scattered Clouds,270,2012-10-07 00:55:00
8:15 PM,34.9,32.0,89,30.35,10.0,West,6.9,-,N/A,,Clear,270,2012-10-07 01:15:00
8:35 PM,34.7,32.2,91,30.35,10.0,West,8.1,-,N/A,,Clear,270,2012-10-07 01:35:00
8:55 PM,34.3,32.2,92,30.35,10.0,West,8.1,-,N/A,,Clear,270,2012-10-07 01:55:00
9:15 PM,34.0,32.0,92,30.35,10.0,West,9.2,-,N/A,,Clear,270,2012-10-07 02:15:00
9:35 PM,34.2,32.0,92,30.35,10.0,West,8.1,-,N/A,,Clear,260,2012-10-07 02:35:00
9:55 PM,34.3,32.0,91,30.34,10.0,West,9.2,-,N/A,,Clear,260,2012-10-07 02:55:00
10:15 PM,34.3,32.0,91,30.34,10.0,West,9.2,-,N/A,,Clear,270,2012-10-07 03:15:00
10:35 PM,33.8,32.0,93,30.34,10.0,West,9.2,-,N/A,,Clear,280,2012-10-07 03:35:00
11:15 PM,33.1,31.1,92,30.33,10.0,West,8.1,-,N/A,,Clear,270,2012-10-07 04:15:00
11:35 PM,32.9,31.1,93,30.33,10.0,West,6.9,-,N/A,,Clear,270,2012-10-07 04:35:00
11:55 PM,32.4,30.7,94,30.33,10.0,West,6.9,-,N/A,,Clear,280,2012-10-07 04:55:00